Location: Malcolm X Square
(37.7810°N, 122.4297°W)
Time: 22:31:37
(UTC+00:00)

USA-17 - Pass Details

Date: 13 April 2024
Orbit: 388 x 1675 km, 63.3° (Epoch: 20 May)

Event Time Altitude Azimuth Distance (km) Brightness Sun altitude
Exits shadow 11:55:39 - 326° (NW) 2,145 7.8 -19.4°
Reaches altitude 10° 11:57:04 10° 326° (NW) 1,536 7.0 -19.2°
Maximum altitude 12:00:23 83° 240° (WSW) 503 4.4 -18.6°
Drops below altitude 10° 12:04:37 10° 151° (SSE) 1,952 7.6 -17.9°
Sets 12:07:14 0° 150° (SSE) 3,055 8.7 -17.4°
